{"data":{"norad_id":58524,"epoch":"2026-09-20T05:07:38.197920Z","epoch_age_seconds":171525,"freshness":"FRESH","line1":"1 58524U 23191S   26263.21363655  .00000040  00000+0  10966-4 0  9999","line2":"2 58524  43.0026  84.6585 0000797 274.5751  85.5010 15.27576323155226","mean_motion":15.27576323,"eccentricity":7.97e-5,"inclination_deg":43.0026,"raan_deg":84.6585,"arg_perigee_deg":274.5751,"mean_anomaly_deg":85.501,"bstar":1.0966e-5,"rev_number":15522,"period_min":94.266975621355,"perigee_km":482.51326891316,"apogee_km":483.60694373191,"semimajor_km":6861.1971063225,"source":"CELESTRAK","updated_at":"2026-09-21T09:00:33.909854Z"}}